SL-8 DEB, 27743

Orbit data source: Space-Track

SL-8 DEB, 27743 is space debris in LEO originally from a launch on Tue, 12 Feb 1991 UTC launched from the Plesetsk Missile And Space Complex (PKMTR). Debris objects in space refer to the collection of defunct objects orbiting the Earth. Examples of debris include non-operational satellites, rocket bodies, and fragments generated from explosions, collisions, or faulty payload assembly.

Loading next visibility...
Identifier
27743, 1991-009CY
Orbit
LEO
Country
Flag of CISCIS
Related business
Manufacturer
Unknown
Mission
Spacecraft
Bus & Motor
Unknown
Mass
Unknown
Launch date (UTC)
1991-02-12 (35 years ago)
Launch vehicle
Unknown
Launch site
Plesetsk Missile And Space Complex (PKMTR)
Object type
Payload
Rocket body
Debris
Shape & HBR
Unknown shape, 0.1 m
Radar Cross Section
Medium (>0.1 m² and <1 m²)

Expand to show TLE details & history
Last TLE update: 5 days ago

TLE from 5 days ago
0 SL-8 DEB
1 27743U 91009CY  26169.12333382 -.00000080  00000-0 -60438-3 0  9995
2 27743  74.0617 220.2777 0135074 266.1869 120.0183 12.20335715254707
Epoch: 2026-06-18T02:57Z
TLE epoch observation values (Epoch: 2026-06-18T02:57:36.042Z)
Latitude
26.42868°
Longitude
-82.3729°
Altitude
1,648.717 km
Speed
7.026 km/s
True Right ascension
15h 13m 35s
True Declination
26° 18' 25"
Sunlit
Object was in daylight at epoch
Visualization orbit readout
Latitude
Unknown
Longitude
Unknown
Altitude
Unknown
Speed
Unknown
Apparent Right ascension
Unknown
Apparent Declination
Unknown
Sunlit
N/A
Visualization observer readout
Local Sidereal Time
03:41:50
Azimuth
Unknown
Elevation
Unknown
Doppler factor
Unknown
Orbital elements
Apogee altitude
1,696.561 km
Perigee altitude
1,481.332 km
Semi-major axis
7,967.083 km
Eccentricity
0.01351
Inclination
74.0617°
RAAN
220.2777°
Arg. of periapsis
266.1869°
True anomaly
121.34717°
Mean anomaly
120.0183°
Eccentric anomaly
120.68387°
Mean motion
3.05207 °/min
Orbital period
117.95 mins
BSTAR
-0.00060438
Loading maneuver chart data...
Computing Atmospheric mass density...
Loading historical data...
Loading historical data...
Loading historical data...
Loading historical data...
Loading historical data...
Loading historical data...
Loading historical data...

Documentation

Showing up to 5 results
|